{"data":{"norad_id":65384,"epoch":"2026-09-19T09:20:04.286400Z","epoch_age_seconds":210814,"freshness":"STALE","line1":"1 65384U 25191F   26262.38893850  .00012139  00000+0  37762-3 0  9999","line2":"2 65384  97.2850 128.5067 0002738  87.2303 272.9253 15.33451272 59479","mean_motion":15.33451272,"eccentricity":0.0002738,"inclination_deg":97.285,"raan_deg":128.5067,"arg_perigee_deg":87.2303,"mean_anomaly_deg":272.9253,"bstar":0.00037762,"rev_number":5947,"period_min":93.905820569172,"perigee_km":463.65071896007,"apogee_km":467.39830800485,"semimajor_km":6843.6615134825,"source":"CELESTRAK","updated_at":"2026-09-21T09:00:35.597994Z"}}